Helicity
89 88 80 72 66 59 56 62 64 67 67 64 56 61 67 65 65 68 66 63 84 107 58 36 26 12 30 71 92 60 62 72 80 107 124 87 106 60 63 32 48 62 51 -22 -10 15 30 45 69 71 49 47 38 25
88 87 81 74 64 63 57 66 65 68 71 74 67 67 54 51 59 63 54 50 65 95 89 93 70 38 15 17 35 58 85 115 94 92 113 104 90 76 63 72 12 58 23 -0 -88 -92 80 85 58 25 -11 -18 -39 -37
88 84 81 72 66 66 65 76 72 68 66 67 66 61 60 59 64 62 57 104 104 94 49 65 54 27 36 17 2 56 68 34 30 37 72 125 147 64 69 59 11 -7 -19 -20 -38 -29 -15 -2 11 9 -3 -10 -18 -21
82 79 81 68 67 70 66 73 69 65 64 54 51 50 48 43 44 42 69 82 94 98 100 72 38 -9 -20 36 93 66 30 24 60 88 91 144 156 108 89 25 27 -2 -30 -23 -37 -18 -0 11 7 15 10 -5 -9 -22
74 75 84 67 64 61 63 69 72 77 58 43 41 39 27 22 23 23 34 49 53 78 110 55 47 25 24 21 41 64 84 70 57 99 131 108 85 81 103 84 93 33 46 46 42 19 -18 1 15 7 18 1 3 12
71 68 75 61 67 63 68 65 70 73 60 52 37 27 20 12 15 63 89 61 54 86 102 60 91 46 59 73 30 15 49 104 111 130 112 95 66 56 176 111 34 -8 4 25 34 -3 -19 -15 -5 -7 9 15 15 19
68 63 62 65 72 72 79 90 96 87 81 86 90 83 82 75 56 122 144 127 93 162 116 57 26 43 33 18 53 66 75 91 102 153 164 77 42 142 167 114 95 -17 -16 22 28 51 36 18 35 30 17 12 35 25
71 64 61 73 75 78 101 111 98 93 97 87 80 77 70 74 94 82 110 129 131 118 104 88 58 56 61 89 92 99 136 127 129 172 164 127 74 108 120 79 26 4 -3 18 38 41 45 33 22 32 32 14 -0 3
80 72 66 75 86 107 115 105 88 73 70 73 75 80 110 102 98 72 81 138 75 116 159 107 79 63 69 83 80 76 108 124 107 165 103 76 82 111 50 30 -0 2 39 24 28 40 34 44 35 29 24 3 -14 -10
75 72 87 100 108 107 97 82 72 73 71 84 106 157 134 95 123 108 135 130 128 138 194 150 82 62 73 75 70 73 92 74 101 97 58 110 63 34 32 -0 -5 57 33 30 10 17 32 18 21 24 25 -17 -40 -30
77 91 93 93 90 88 81 78 73 79 98 151 174 176 147 59 85 100 117 128 118 134 108 71 51 35 59 63 80 88 102 84 118 73 86 82 40 41 33 39 59 48 32 29 27 44 33 21 18 21 21 -32 -35 -6
69 71 73 78 78 77 80 79 74 136 155 148 148 163 134 107 123 119 158 127 123 95 91 64 63 25 56 58 60 66 81 81 108 105 84 97 49 61 71 77 51 45 24 9 25 18 20 21 25 16 -21 -36 -21 4
71 70 71 82 80 70 65 61 48 132 140 175 235 219 126 130 154 202 188 136 110 89 90 75 84 80 87 49 60 52 99 101 75 84 105 47 66 59 117 89 46 21 19 -2 -12 24 31 25 35 -26 -37 -38 -12 26
76 74 74 78 74 57 46 53 79 137 250 261 206 183 138 150 143 142 99 80 132 64 46 50 69 49 55 63 56 119 61 64 103 137 65 107 131 129 114 66 29 30 29 7 -31 -3 29 30 30 -40 -57 -49 17 30
79 77 81 87 92 105 93 75 86 123 240 195 150 139 125 145 160 123 78 122 115 125 52 54 44 52 56 73 63 63 79 133 130 97 130 148 146 136 93 83 42 33 21 -1 -24 -9 14 31 28 -30 -44 -49 43 12
126 143 196 113 96 136 107 72 110 119 207 189 155 154 144 122 90 92 93 91 101 88 57 60 59 71 80 72 112 139 166 144 78 156 183 165 179 164 156 74 64 50 32 -8 -18 3 7 35 15 -30 -38 -41 3 58
180 279 143 184 128 57 83 231 223 183 151 161 157 162 154 147 147 94 67 86 130 90 88 122 154 132 92 98 65 66 73 137 180 226 227 221 197 202 113 68 28 22 31 13 -14 -0 6 -0 -5 -19 -16 -15 -18 19
222 156 131 52 77 120 160 144 175 160 147 149 125 117 101 105 101 92 93 78 96 89 104 118 136 124 133 112 74 18 -27 29 59 84 121 151 136 97 79 76 52 61 35 9 10 12 8 8 -6 -3 -2 -10 -9 -1
84 67 34 31 120 202 204 130 162 155 129 124 98 74 69 75 61 66 71 83 89 83 115 137 131 124 86 72 76 93 127 92 60 96 123 105 99 82 76 82 69 29 12 17 18 14 18 5 9 9 8 -1 3 7
60 37 45 34 96 194 219 179 105 151 92 97 62 48 63 59 39 45 46 49 54 70 114 161 115 95 106 120 118 124 141 145 108 62 50 66 84 77 59 40 29 24 21 6 18 39 28 13 23 32 38 26 13 21
87 56 81 96 84 151 155 118 146 127 118 75 35 39 57 40 48 55 58 63 84 102 107 98 74 65 62 90 115 124 86 69 64 69 59 46 57 39 18 23 29 33 35 17 37 59 45 28 24 49 46 45 40 26
185 159 169 128 79 93 109 123 141 97 78 67 50 43 64 67 61 63 68 74 75 79 77 76 83 103 123 139 109 103 93 82 78 70 54 43 19 23 31 33 35 37 47 47 46 56 55 49 42 69 61 46 42 43
139 150 152 125 134 143 127 100 70 50 59 63 51 62 73 72 72 69 105 84 81 149 137 106 115 96 88 69 55 47 44 54 63 49 36 27 19 20 31 28 33 32 47 57 60 52 56 52 88 93 62 50 64 59
104 132 127 100 106 124 89 81 80 76 62 56 63 79 82 72 68 79 73 54 146 129 83 85 74 79 65 48 56 48 45 49 44 31 16 5 3 6 11 29 36 39 43 56 74 91 77 92 105 80 68 67 74 53
109 87 79 102 85 87 84 82 64 58 71 56 62 76 69 62 88 78 63 78 115 101 104 79 66 62 61 59 53 49 45 44 47 27 9 6 2 6 7 16 29 36 42 43 59 102 108 143 125 88 77 59 51 47
93 71 61 49 60 67 62 73 65 55 63 77 88 78 62 55 68 90 77 106 104 101 75 64 63 54 45 43 45 40 36 34 26 25 -2 1 4 -0 3 13 22 32 45 48 50 74 132 142 100 71 49 58 60 54
84 80 62 75 53 44 50 48 56 72 86 86 80 73 80 103 100 127 84 72 73 73 55 48 42 39 41 43 33 25 26 31 20 11 4 20 24 14 4 8 12 32 51 48 49 73 117 122 86 76 55 65 65 45
71 63 69 39 44 41 51 67 76 91 101 85 108 131 144 135 143 116 100 86 69 63 52 47 43 36 34 29 21 23 24 24 14 2 4 19 27 40 40 56 51 31 7 20 52 70 138 100 80 80 61 68 54 36
66 65 80 85 82 87 101 97 97 80 99 88 100 111 75 79 55 52 79 80 61 44 48 53 45 40 29 28 30 30 27 11 -13 -14 26 74 101 118 86 67 128 57 60 47 57 117 124 98 70 73 70 57 37 27
100 88 73 94 101 100 78 91 60 102 118 108 83 59 56 57 72 67 71 74 73 60 51 37 30 29 23 23 22 19 16 6 -8 -16 32 109 147 148 133 116 99 102 63 77 127 143 106 84 99 102 70 51 40 35
143 84 99 94 97 58 64 97 80 68 66 74 82 73 68 96 59 57 63 59 49 44 36 39 37 26 16 7 -1 -8 17 6 -7 17 6 69 124 149 136 107 95 78 95 163 157 135 113 92 76 66 55 36 28 29
116 124 154 141 96 61 50 52 43 39 45 51 55 75 79 62 59 48 56 57 59 56 51 34 23 13 -5 -33 -51 -48 -28 -17 22 63 121 136 149 206 131 103 156 168 225 155 124 97 76 74 78 69 60 55 49 55
74 65 66 64 60 52 63 69 77 64 70 66 79 82 81 87 99 97 48 50 47 42 37 21 6 -18 -37 -44 -39 -25 -2 21 80 118 163 188 290 314 237 231 218 188 128 102 117 109 96 78 68 67 60 62 74 89
Wind_Speed
72 68 64 64 59 55 50 45 41 36 32 28 26 24 21 18 15 15 21 15 14 31 27 22 13 12 15 12 17 20 32 21 22 24 24 24 25 21 20 22 27 22 13 6 13 12 52 51 45 49 60 73 78 85
72 68 63 61 60 56 52 46 42 37 33 28 24 22 23 21 17 14 23 18 17 24 28 37 28 16 15 12 13 13 10 27 24 25 26 26 24 28 23 26 22 19 13 17 28 32 72 79 80 77 77 75 76 77
71 67 63 59 58 57 51 46 43 39 33 28 26 23 21 20 17 12 17 24 26 38 47 24 16 15 13 11 8 13 10 9 15 21 29 22 20 21 26 27 30 23 17 17 40 39 62 80 81 83 81 79 79 79
70 65 61 58 56 55 52 47 43 38 33 29 24 21 19 17 15 12 16 19 23 38 47 43 32 30 17 13 11 13 14 12 15 24 22 20 19 20 21 30 27 22 20 18 50 54 59 75 80 81 85 85 84 81
69 64 58 57 54 53 51 46 42 37 32 28 26 22 19 16 14 15 19 20 16 28 45 50 58 40 24 19 9 7 9 9 17 22 20 19 20 23 21 29 23 17 17 17 22 40 59 71 82 86 88 89 89 89
66 62 57 55 51 49 47 44 40 36 31 29 27 24 21 17 14 24 34 23 16 24 42 49 41 42 33 23 12 2 6 12 14 20 23 23 17 19 29 30 23 22 21 16 30 27 63 71 85 85 85 87 92 93
64 60 55 51 47 45 41 38 35 32 28 24 20 17 16 14 13 27 36 32 15 18 37 46 41 31 27 21 26 22 13 17 16 23 22 22 21 22 23 27 22 29 21 18 26 52 71 71 77 84 87 86 87 89
59 57 53 47 45 42 37 34 30 27 26 24 22 20 18 19 32 33 24 22 19 24 31 40 38 34 19 26 26 22 22 20 21 23 28 27 24 16 22 19 23 32 43 49 55 50 59 65 73 78 82 84 88 87
54 52 50 46 42 38 35 32 29 26 22 18 13 9 12 25 28 31 21 9 19 31 37 32 33 37 25 28 25 21 23 24 24 22 22 22 19 18 18 25 35 51 56 65 65 62 64 72 73 72 77 81 83 85
50 47 44 41 39 36 34 31 27 23 20 15 11 26 33 26 11 16 25 22 27 32 34 37 27 28 27 26 27 27 24 26 30 23 21 20 20 16 17 19 39 49 55 60 68 71 69 70 73 77 79 78 76 78
46 44 42 41 40 37 35 32 28 24 20 22 27 31 20 5 18 30 30 25 27 38 34 35 23 22 24 29 30 28 29 28 33 29 22 29 30 26 23 28 38 46 52 57 59 61 53 57 72 77 78 68 70 69
44 41 40 39 39 37 34 32 31 27 26 25 19 13 16 29 32 34 32 29 29 37 24 21 22 14 21 24 25 25 28 27 32 25 27 33 30 24 27 34 41 48 54 58 62 63 57 64 67 72 67 65 66 55
42 40 38 37 37 36 34 34 32 19 11 15 28 29 32 31 39 39 35 32 31 27 23 19 19 18 23 20 25 27 28 29 28 28 30 27 28 20 29 39 44 50 55 62 65 61 55 66 65 67 61 66 57 47
39 37 37 36 34 32 32 30 28 22 25 33 32 36 38 37 38 34 33 32 31 26 15 13 18 22 23 21 26 32 27 29 31 32 29 29 27 32 36 43 50 56 61 66 69 66 60 64 65 61 61 61 50 42
36 34 33 33 31 32 31 31 27 26 32 33 33 42 40 37 36 34 37 34 29 27 21 22 26 25 25 29 26 29 31 33 31 33 34 32 35 41 45 51 54 57 60 67 68 67 62 59 61 58 56 55 48 43
34 33 42 38 36 32 31 28 29 33 37 38 39 40 38 38 38 37 34 34 28 27 26 28 34 33 33 32 31 32 38 41 40 31 31 38 43 47 51 55 59 60 63 66 69 67 60 57 60 56 54 52 48 42
35 37 34 31 29 29 29 30 30 35 38 42 42 38 38 37 37 31 30 29 26 27 30 32 35 33 32 34 33 36 42 39 35 36 40 45 51 56 58 61 62 63 68 68 69 67 61 59 58 55 53 50 48 43
32 25 27 29 28 25 32 32 33 38 45 42 41 36 37 41 40 38 34 32 30 34 37 40 42 43 42 46 43 38 37 37 37 40 49 55 59 60 63 71 75 73 71 70 68 63 60 57 58 54 52 50 47 44
23 24 30 33 23 23 26 35 36 42 41 35 36 34 37 40 39 41 41 39 38 36 38 40 42 45 47 46 53 59 51 54 61 62 61 65 68 69 72 77 78 75 66 63 62 59 57 57 55 55 53 51 49 47
17 23 27 30 21 25 26 28 32 37 38 38 37 41 41 41 40 39 36 34 33 33 39 43 46 48 53 60 55 54 60 66 72 77 77 75 74 78 81 83 82 76 73 66 56 56 57 56 47 47 47 49 50 48
14 20 21 25 33 27 27 26 28 35 36 44 36 37 42 32 35 36 37 35 37 40 42 40 44 50 56 56 56 63 72 74 77 78 82 84 79 83 86 83 80 75 73 69 61 58 56 57 53 45 45 43 43 46
17 15 19 22 30 31 32 30 30 24 32 34 31 30 35 36 39 42 44 45 45 45 47 52 57 63 62 61 65 64 67 72 75 77 77 78 82 79 78 77 77 75 71 68 64 63 58 52 48 42 40 39 34 37
11 19 23 26 29 30 31 28 32 32 37 34 34 38 41 41 39 34 38 38 38 34 37 41 44 47 51 56 61 64 65 67 70 72 75 79 83 83 81 79 77 78 76 71 68 61 54 48 40 38 38 34 30 29
14 22 25 26 28 30 29 31 33 36 37 38 38 40 40 38 36 38 43 41 34 29 33 40 46 50 53 55 58 61 63 65 71 74 76 82 84 82 81 79 74 72 73 72 66 54 51 41 35 32 32 30 25 21
23 26 26 29 28 29 31 34 34 34 37 36 40 40 38 33 40 43 43 38 32 36 39 44 47 49 55 58 60 61 62 65 71 79 80 81 84 84 84 82 79 75 72 73 68 56 46 34 31 29 28 22 19 17
29 27 28 25 25 28 30 33 34 36 37 37 39 36 36 42 44 44 40 33 35 37 39 44 50 56 58 59 66 68 70 71 75 82 87 83 82 83 85 84 82 78 66 66 65 53 35 29 24 22 19 15 13 14
31 31 28 29 27 28 32 32 32 33 34 36 37 35 37 42 44 37 33 33 34 36 41 46 52 57 62 67 69 72 75 75 78 86 93 91 89 88 89 90 88 77 68 63 59 44 29 23 19 14 12 9 10 12
32 30 30 26 30 30 34 36 33 35 36 35 36 37 40 42 41 36 37 36 40 43 47 50 53 57 62 66 68 72 74 75 79 84 86 86 82 81 84 88 88 87 82 73 65 50 29 23 15 7 3 6 11 14
32 28 29 34 34 35 39 39 38 37 38 39 43 47 45 41 40 41 41 42 43 46 50 54 56 59 61 62 65 69 72 77 82 87 89 87 80 72 65 68 72 74 72 73 72 43 24 17 11 4 4 8 11 14
32 31 35 34 40 42 41 41 44 39 38 40 40 42 45 44 40 38 39 41 45 47 49 52 55 60 65 67 72 73 71 71 73 77 80 78 75 72 70 67 65 63 62 57 32 23 16 10 5 3 3 7 10 11
36 35 40 40 42 40 41 36 36 38 40 43 44 48 49 41 38 34 38 41 44 45 48 52 58 60 63 67 70 72 71 66 62 60 56 59 59 60 62 62 63 51 40 26 22 19 15 12 10 7 6 10 8 9
33 36 39 41 45 40 40 42 42 40 37 36 37 35 38 37 38 32 33 39 41 44 49 54 59 62 62 62 59 56 60 59 55 50 51 50 48 47 48 43 38 31 28 24 19 15 13 12 10 7 4 7 8 9
31 31 32 37 40 42 35 37 39 42 35 38 34 34 34 36 37 33 31 36 42 47 51 56 59 60 57 54 51 51 54 55 51 45 43 40 30 25 26 28 26 22 21 17 16 15 13 10 8 4 1 2 6 9
Wind_Direction
241 243 245 247 248 248 248 249 251 253 259 260 268 273 282 295 309 319 330 349 340 335 325 319 326 335 339 344 350 17 9 21 25 25 21 19 17 19 10 2 2 353 344 296 349 312 300 304 316 315 295 278 280 283
239 240 242 244 246 247 247 245 248 249 252 257 263 270 278 285 297 310 314 330 334 327 329 333 333 315 265 254 326 351 18 20 24 20 21 19 9 6 357 337 338 325 305 269 236 229 262 274 274 273 277 277 276 273
237 238 240 242 244 244 244 242 244 246 248 251 259 265 275 283 291 295 318 335 338 329 324 310 314 303 238 244 270 275 272 299 323 346 349 353 348 352 343 344 339 331 328 292 242 235 245 266 274 275 274 278 279 278
234 236 238 240 241 241 241 240 240 240 244 249 252 257 267 277 288 296 307 327 330 333 328 335 343 347 0 338 277 247 258 292 334 345 334 338 330 351 332 327 315 313 309 301 252 247 250 264 284 291 279 282 278 277
233 234 236 239 239 239 239 238 235 234 240 247 249 255 263 273 285 303 314 322 330 328 325 323 317 324 318 319 313 282 266 282 313 330 330 319 323 327 313 319 302 318 313 306 266 246 252 261 295 290 280 284 290 295
230 232 235 236 235 235 236 233 232 230 236 245 249 256 262 267 281 307 313 310 305 326 326 325 333 325 330 345 3 302 295 317 318 334 332 331 294 312 342 332 327 332 335 315 255 256 257 264 299 299 300 298 298 299
228 230 232 230 229 229 228 225 224 229 231 237 247 257 267 272 275 302 316 333 355 336 326 326 331 342 350 12 6 2 11 355 344 336 320 316 322 342 329 304 289 332 306 323 331 331 313 314 311 303 302 304 306 307
224 227 228 225 226 221 216 214 217 222 230 240 250 259 271 284 291 294 313 348 357 330 327 324 326 331 347 345 352 1 353 347 343 336 340 332 339 340 339 330 346 347 341 339 336 339 332 326 320 313 308 306 302 307
220 221 223 220 216 207 207 212 214 223 226 223 233 250 288 288 294 304 310 308 326 318 319 321 322 328 345 341 352 358 355 345 344 331 334 354 346 344 347 348 347 338 334 324 329 333 332 324 323 325 318 306 301 303
215 212 209 206 205 205 207 206 202 204 200 190 212 277 283 290 346 350 327 313 304 306 308 307 307 313 334 337 342 349 355 349 346 340 359 341 317 291 299 325 339 338 337 333 327 327 335 331 324 321 320 303 295 296
205 205 206 206 206 203 203 195 194 188 183 238 266 278 303 344 309 307 309 308 307 309 310 309 289 299 318 322 332 345 348 352 346 350 351 351 349 360 9 360 350 345 343 340 341 342 350 347 331 323 320 295 297 298
200 200 199 200 200 200 196 193 186 206 241 255 277 293 295 295 297 296 297 308 304 306 315 320 329 321 320 335 335 343 343 349 340 359 347 345 351 2 5 354 348 346 342 340 339 341 349 343 342 331 302 296 298 283
194 192 194 194 195 196 199 192 190 220 205 256 278 279 287 288 282 287 287 297 303 306 314 327 333 340 335 334 339 341 338 335 348 342 340 341 345 4 356 347 344 344 343 339 333 343 350 343 348 319 301 307 296 288
183 188 187 188 194 193 184 187 198 214 252 270 272 272 275 284 286 284 287 300 303 312 316 325 327 329 329 330 331 333 334 337 333 331 332 346 352 348 347 340 335 332 336 335 325 331 342 343 344 309 311 312 299 295
172 178 183 187 193 202 201 204 201 231 265 271 275 276 275 281 289 294 290 297 304 306 313 321 318 316 318 324 333 332 334 326 330 328 333 334 340 336 335 332 329 329 333 333 329 326 336 345 346 309 312 316 310 302
184 196 217 207 205 205 208 199 226 249 269 275 276 279 284 281 280 285 291 290 298 306 311 311 312 316 312 318 319 317 317 316 324 335 333 329 329 329 330 327 325 325 327 327 323 325 333 339 336 304 309 318 320 312
191 230 196 194 202 197 189 231 246 256 266 273 275 275 283 288 289 288 288 295 306 302 297 305 306 305 322 318 312 320 312 322 325 323 325 323 322 323 322 319 320 320 318 319 316 318 322 321 320 311 306 312 320 320
223 208 191 184 181 191 231 247 255 264 268 273 275 279 276 282 286 289 295 296 300 298 295 292 305 300 301 304 306 328 326 325 328 324 320 316 315 317 317 311 308 311 313 313 312 310 313 317 308 309 308 309 309 317
223 193 173 167 199 232 251 252 264 271 270 279 278 284 285 288 291 293 295 296 297 300 300 300 299 300 299 300 302 303 308 309 306 308 310 310 310 311 310 306 305 305 312 311 306 304 310 309 313 311 310 304 304 310
165 157 159 159 210 259 263 277 260 276 278 282 288 286 288 290 296 297 297 296 294 291 288 292 292 296 301 302 311 309 307 305 304 303 303 305 307 304 300 297 295 296 298 302 306 305 305 305 323 324 326 316 304 304
172 179 182 217 243 268 277 282 276 283 285 283 296 294 292 303 296 296 296 297 292 289 292 294 296 299 302 306 308 305 303 303 301 303 302 301 303 298 293 292 292 291 290 289 293 295 300 297 309 326 327 330 325 306
217 205 235 256 261 270 280 289 292 301 294 297 301 299 300 299 298 297 299 294 291 294 297 297 298 298 301 303 305 307 307 305 303 302 301 300 295 295 295 292 288 287 288 285 286 286 291 302 309 322 331 336 337 329
246 263 273 276 279 280 285 288 287 293 293 299 298 296 298 300 304 310 306 305 303 309 310 311 310 310 309 309 309 308 309 307 305 304 302 299 294 291 289 287 285 281 280 280 279 284 291 299 308 318 326 340 342 340
272 274 276 276 280 281 288 286 286 287 291 290 296 296 300 305 309 305 302 303 312 316 316 315 315 314 313 313 312 311 311 311 307 303 303 298 293 291 287 284 284 283 278 277 278 282 288 295 304 318 328 338 343 348
271 273 282 278 283 284 284 287 287 290 292 295 294 299 306 309 303 302 303 310 311 313 316 316 316 317 315 314 314 314 315 314 310 303 305 302 295 290 284 278 278 277 276 272 271 277 283 288 299 312 326 342 349 355
273 284 282 283 287 290 290 292 291 290 293 296 300 307 307 301 298 303 310 313 315 316 317 317 316 316 316 316 313 313 313 313 309 303 301 301 295 287 279 273 270 270 273 271 268 272 276 278 293 312 327 350 7 15
279 286 289 293 295 299 297 298 301 299 297 299 303 305 306 301 303 310 318 324 323 324 322 321 320 318 316 314 313 312 311 312 308 302 299 298 293 283 270 262 257 262 267 268 264 268 266 269 289 309 331 4 41 47
290 291 290 292 294 297 298 299 300 300 302 306 307 303 304 306 310 319 323 325 323 322 322 322 321 320 318 317 317 318 317 316 312 309 306 302 295 285 268 255 252 248 248 250 253 259 259 262 283 310 12 57 57 54
294 299 300 294 297 298 298 297 297 302 306 304 300 299 304 311 316 317 318 318 320 320 320 320 322 323 323 323 323 322 320 316 310 304 298 295 291 282 277 266 252 247 244 240 238 251 247 253 272 292 103 78 54 49
298 302 299 300 297 295 298 303 302 307 310 308 310 309 310 311 314 319 319 319 318 319 321 323 324 324 322 319 317 317 317 314 312 308 298 288 281 273 265 258 248 241 236 235 239 232 226 234 242 197 103 77 66 39
304 303 299 298 300 302 302 311 311 311 309 308 308 305 306 311 316 313 316 319 319 321 323 323 323 323 321 316 311 305 297 297 290 286 281 278 271 263 254 242 231 230 224 218 209 206 215 219 201 167 127 101 70 39
306 302 303 302 301 307 310 307 306 307 309 309 310 313 314 313 309 316 321 319 318 319 321 321 319 314 309 301 289 282 287 286 285 285 288 284 275 262 239 229 219 212 212 198 199 201 193 191 193 191 136 90 68 37
314 317 316 311 308 308 313 313 309 306 306 308 311 314 313 313 311 318 325 321 316 314 315 312 307 299 289 283 280 285 292 293 288 286 293 294 271 243 215 204 206 202 194 198 201 194 184 183 185 190 167 21 5 15